User: anonymous   Login
Location: Homewood
(41.1836°S, 175.9581°E)
Time: 04:47:38
(UTC+00:00)
Language:

Cosmos 1470 - Orbit

View from above orbital plane
View from above orbital plane
View from above satellite
View from above satellite

Ground track
Ground track

The orbit data is extracted from the following two-line orbital elements,

1 14147U 83061A   25196.52064796  .00008648  00000-0  24903-3 0  9994
2 14147  82.4726   0.9825 0010144 129.3790 230.8354 15.35540750 51245
Epoch (UTC): 15 July 2025 12:29:43
Eccentricity: 0.0010144
inclination: 82.4726°
perigee height: 452 km
apogee height: 466 km
right ascension of ascending node: 0.9825°
argument of perigee: 129.3790°
revolutions per day: 15.35540750
mean anomaly at epoch: 230.8354°
orbit number at epoch: 5124

The dashed part of the orbit path shows where the satellite is in the earth's shadow,  

DLR